• In Russia
  • List of Countries
  • For 7 days
  • Water Temperature
  • Satellite Maps
  • Weather Map
  • Weather Widgets
  • user-avatar
    Login

    Hourly Weather Barra

    Today, 25 February, Saturday

    Time Temperature Precipitation Wind Pressure Humidity
    00:00 +25°C° 0.6 mm 2 mps 748 mmHg 94%
    01:00 +25°C° 0.6 mm 2 mps 747 mmHg 95%
    02:00 +25°C° 0.5 mm 2 mps 747 mmHg 94%
    03:00 +25°C° 0.5 mm 2 mps 747 mmHg 94%
    04:00 +25°C° 0 mm 2 mps 747 mmHg 95%
    05:00 +25°C° 0.7 mm 2 mps 747 mmHg 93%
    06:00 +26°C° 0.7 mm 2 mps 747 mmHg 92%
    07:00 +26°C° 0.7 mm 2 mps 747 mmHg 91%
    08:00 +28°C° 1.1 mm 3 mps 747 mmHg 82%
    09:00 +30°C° 1.1 mm 3 mps 747 mmHg 73%
    10:00 +31°C° 0 mm 3 mps 748 mmHg 65%
    11:00 +32°C° 0.7 mm 4 mps 747 mmHg 63%
    12:00 +33°C° 0.7 mm 4 mps 747 mmHg 60%
    13:00 +34°C° 0.7 mm 5 mps 746 mmHg 57%
    14:00 +33°C° 1.1 mm 5 mps 746 mmHg 58%
    15:00 +33°C° 1.1 mm 5 mps 746 mmHg 58%
    16:00 +32°C° 0 mm 4 mps 746 mmHg 60%
    17:00 +29°C° 0.1 mm 4 mps 746 mmHg 69%
    18:00 +28°C° 0.1 mm 3 mps 746 mmHg 78%
    19:00 +26°C° 0.1 mm 3 mps 746 mmHg 87%
    20:00 +25°C° 0 mm 3 mps 747 mmHg 89%
    21:00 +25°C° 0 mm 3 mps 747 mmHg 91%
    22:00 +25°C° 0 mm 3 mps 747 mmHg 93%
    23:00 +25°C° 0 mm 3 mps 747 mmHg 93%

    Tomorrow, 26 February, Sunday

    Time Temperature Precipitation Wind Pressure Humidity
    00:00 +25°C° 0 mm 3 mps 747 mmHg 93%
    01:00 +25°C° 0 mm 3 mps 746 mmHg 93%
    02:00 +25°C° 0 mm 3 mps 746 mmHg 92%
    03:00 +25°C° 0 mm 3 mps 746 mmHg 91%
    04:00 +25°C° 0 mm 3 mps 746 mmHg 91%
    05:00 +25°C° 0.1 mm 3 mps 746 mmHg 90%
    06:00 +25°C° 0.1 mm 3 mps 746 mmHg 89%
    07:00 +25°C° 0.1 mm 3 mps 747 mmHg 88%
    08:00 +27°C° 0.2 mm 4 mps 747 mmHg 81%
    09:00 +28°C° 0.2 mm 4 mps 747 mmHg 74%
    10:00 +30°C° 0.2 mm 5 mps 747 mmHg 67%
    11:00 +30°C° 0.1 mm 5 mps 747 mmHg 63%
    12:00 +32°C° 0.1 mm 5 mps 746 mmHg 60%
    13:00 +33°C° 0.1 mm 5 mps 746 mmHg 57%
    14:00 +33°C° 0.1 mm 5 mps 746 mmHg 58%
    15:00 +32°C° 0.1 mm 5 mps 745 mmHg 60%
    16:00 +32°C° 0.1 mm 5 mps 745 mmHg 61%
    17:00 +29°C° 0.2 mm 5 mps 745 mmHg 70%
    18:00 +27°C° 0.2 mm 4 mps 746 mmHg 80%
    19:00 +26°C° 0.2 mm 4 mps 746 mmHg 89%
    20:00 +25°C° 0.2 mm 4 mps 747 mmHg 91%
    21:00 +25°C° 0.2 mm 4 mps 747 mmHg 93%
    22:00 +23°C° 0.2 mm 4 mps 748 mmHg 94%
    23:00 +25°C° 0.3 mm 4 mps 747 mmHg 93%

    Day after tomorrow, 27 February, Monday

    Time Temperature Precipitation Wind Pressure Humidity
    00:00 +25°C° 0.3 mm 4 mps 747 mmHg 92%
    01:00 +25°C° 0.3 mm 4 mps 747 mmHg 91%
    02:00 +25°C° 0.2 mm 4 mps 747 mmHg 91%
    03:00 +25°C° 0.2 mm 4 mps 746 mmHg 90%
    04:00 +25°C° 0.2 mm 4 mps 746 mmHg 90%
    05:00 +25°C° 0 mm 4 mps 747 mmHg 90%
    06:00 +25°C° 0 mm 4 mps 747 mmHg 90%
    07:00 +25°C° 0 mm 4 mps 748 mmHg 89%
    08:00 +27°C° 0.1 mm 4 mps 748 mmHg 82%
    09:00 +28°C° 0.1 mm 5 mps 748 mmHg 75%
    10:00 +30°C° 0.1 mm 5 mps 748 mmHg 68%
    11:00 +30°C° 0.1 mm 5 mps 748 mmHg 64%
    12:00 +32°C° 0.1 mm 5 mps 747 mmHg 60%
    13:00 +33°C° 0.1 mm 5 mps 747 mmHg 55%
    14:00 +33°C° 0 mm 5 mps 746 mmHg 56%
    15:00 +33°C° 0 mm 5 mps 746 mmHg 57%
    16:00 +32°C° 0 mm 5 mps 745 mmHg 58%
    17:00 +30°C° 0.1 mm 5 mps 746 mmHg 67%
    18:00 +28°C° 0.1 mm 5 mps 746 mmHg 76%
    19:00 +26°C° 0.1 mm 4 mps 747 mmHg 84%
    20:00 +26°C° 0.1 mm 4 mps 747 mmHg 86%
    21:00 +25°C° 0.1 mm 4 mps 748 mmHg 89%
    22:00 +25°C° 0.1 mm 4 mps 748 mmHg 91%
    23:00 +23°C° 0.4 mm 4 mps 748 mmHg 91%

    28 February, Tuesday

    Time Temperature Precipitation Wind Pressure Humidity
    00:00 +23°C° 0.4 mm 4 mps 748 mmHg 92%
    01:00 +24°C° 0.4 mm 3 mps 748 mmHg 93%
    02:00 +24°C° 0.4 mm 3 mps 747 mmHg 92%
    03:00 +25°C° 0.4 mm 3 mps 747 mmHg 90%
    04:00 +25°C° 0.4 mm 3 mps 747 mmHg 88%
    05:00 +25°C° 0.3 mm 3 mps 747 mmHg 88%
    06:00 +25°C° 0.3 mm 4 mps 748 mmHg 88%
    07:00 +25°C° 0.3 mm 4 mps 748 mmHg 88%
    08:00 +27°C° 0.2 mm 4 mps 748 mmHg 82%
    09:00 +28°C° 0.2 mm 4 mps 748 mmHg 76%
    10:00 +29°C° 0.2 mm 5 mps 749 mmHg 70%
    11:00 +30°C° 0.1 mm 5 mps 748 mmHg 65%
    12:00 +32°C° 0.1 mm 5 mps 747 mmHg 61%
    13:00 +33°C° 0.1 mm 5 mps 747 mmHg 56%
    14:00 +33°C° 0.1 mm 5 mps 746 mmHg 57%
    15:00 +32°C° 0.1 mm 5 mps 746 mmHg 58%
    16:00 +32°C° 0.1 mm 5 mps 746 mmHg 60%
    17:00 +29°C° 0 mm 4 mps 746 mmHg 68%
    18:00 +27°C° 0 mm 4 mps 747 mmHg 77%
    19:00 +25°C° 0 mm 3 mps 747 mmHg 85%
    20:00 +25°C° 0.1 mm 3 mps 747 mmHg 87%
    21:00 +25°C° 0.1 mm 3 mps 748 mmHg 90%
    22:00 +24°C° 0.1 mm 3 mps 748 mmHg 92%
    23:00 +24°C° 0 mm 3 mps 748 mmHg 93%

    1 March, Wednesday

    Time Temperature Precipitation Wind Pressure Humidity
    00:00 +24°C° 0 mm 3 mps 748 mmHg 93%
    01:00 +24°C° 0 mm 3 mps 747 mmHg 94%
    02:00 +24°C° 0.3 mm 3 mps 747 mmHg 93%
    03:00 +24°C° 0.3 mm 3 mps 747 mmHg 92%
    04:00 +24°C° 0.3 mm 3 mps 746 mmHg 92%
    05:00 +25°C° 0.4 mm 3 mps 747 mmHg 91%
    06:00 +25°C° 0.4 mm 3 mps 747 mmHg 90%
    07:00 +25°C° 0.4 mm 3 mps 748 mmHg 89%
    08:00 +27°C° 0.2 mm 4 mps 748 mmHg 82%
    09:00 +28°C° 0.2 mm 4 mps 748 mmHg 75%
    10:00 +30°C° 0.2 mm 4 mps 748 mmHg 67%
    11:00 +32°C° 0 mm 5 mps 748 mmHg 62%
    12:00 +33°C° 0 mm 5 mps 747 mmHg 57%
    13:00 +34°C° 0 mm 5 mps 746 mmHg 52%
    14:00 +33°C° 0 mm 5 mps 746 mmHg 53%
    15:00 +33°C° 0 mm 5 mps 745 mmHg 55%
    16:00 +33°C° 0 mm 4 mps 745 mmHg 56%
    17:00 +30°C° 0 mm 4 mps 745 mmHg 67%
    18:00 +28°C° 0 mm 4 mps 746 mmHg 77%
    19:00 +26°C° 0 mm 3 mps 746 mmHg 88%
    20:00 +25°C° 0.1 mm 3 mps 747 mmHg 90%
    21:00 +25°C° 0.1 mm 3 mps 747 mmHg 92%
    22:00 +24°C° 0.1 mm 3 mps 747 mmHg 95%
    23:00 +24°C° 0.2 mm 3 mps 747 mmHg 95%

    2 March, Thursday

    Time Temperature Precipitation Wind Pressure Humidity
    00:00 +24°C° 0.2 mm 3 mps 747 mmHg 94%
    01:00 +24°C° 0.2 mm 3 mps 746 mmHg 94%
    02:00 +25°C° 0.3 mm 3 mps 746 mmHg 93%
    03:00 +25°C° 0.3 mm 3 mps 746 mmHg 93%
    04:00 +25°C° 0.3 mm 3 mps 746 mmHg 92%
    05:00 +25°C° 0.3 mm 3 mps 746 mmHg 92%
    06:00 +26°C° 0.3 mm 3 mps 746 mmHg 92%
    07:00 +26°C° 0.3 mm 3 mps 747 mmHg 92%
    08:00 +27°C° 0.3 mm 3 mps 747 mmHg 85%
    09:00 +28°C° 0.3 mm 4 mps 747 mmHg 78%
    10:00 +30°C° 0.3 mm 4 mps 747 mmHg 71%
    11:00 +32°C° 0.3 mm 4 mps 747 mmHg 67%
    12:00 +33°C° 0.3 mm 5 mps 746 mmHg 62%
    13:00 +34°C° 0.3 mm 5 mps 745 mmHg 57%
    14:00 +33°C° 0.2 mm 5 mps 745 mmHg 59%
    15:00 +33°C° 0.2 mm 5 mps 745 mmHg 62%
    16:00 +32°C° 0.2 mm 4 mps 744 mmHg 64%
    17:00 +30°C° 0.7 mm 4 mps 745 mmHg 72%
    18:00 +28°C° 0.7 mm 3 mps 745 mmHg 80%
    19:00 +26°C° 0.7 mm 3 mps 745 mmHg 87%
    20:00 +26°C° 0.5 mm 3 mps 746 mmHg 89%
    21:00 +26°C° 0.5 mm 3 mps 746 mmHg 91%
    22:00 +26°C° 0.5 mm 2 mps 747 mmHg 92%
    23:00 +25°C° 0.3 mm 2 mps 746 mmHg 93%
    Show more